Theta_e
306 307 308 309 311 312 312 313 313 313 314 314 313 313 311 309 307 306 308 308 306 305 305 305 305 305 305 307 306 307 308 310 312 313 313 309 309 309 308 308 309 309 308 308 308
306 307 308 309 310 311 311 312 312 312 312 312 312 312 311 309 307 308 309 307 305 305 305 306 307 305 307 308 306 307 309 312 311 308 308 308 308 308 308 309 308 309 308 306 307
306 306 307 307 308 309 310 311 312 312 312 312 311 311 310 309 309 311 308 305 305 306 305 304 305 307 308 308 308 308 309 311 309 308 307 307 307 308 307 307 309 309 309 308 306
307 307 307 307 307 308 309 310 311 312 313 313 312 310 309 308 314 310 306 306 306 305 304 304 306 308 309 310 309 307 309 309 308 307 306 306 307 307 307 307 308 308 308 308 307
310 310 310 310 310 310 310 310 310 311 313 313 312 310 307 309 310 309 307 306 305 305 305 306 306 308 310 311 310 308 308 309 308 308 307 306 306 306 306 307 307 308 307 307 307
312 314 314 314 315 315 314 313 313 312 312 313 311 309 307 309 308 307 306 305 305 304 305 304 306 307 306 308 308 307 307 307 307 307 307 307 306 306 307 307 307 307 307 306 306
314 314 314 315 315 314 314 314 314 313 312 311 310 308 308 309 307 306 305 305 304 304 305 304 304 304 306 307 307 306 306 307 309 308 307 304 305 305 308 307 307 306 306 306 305
314 314 314 314 313 312 313 312 311 312 313 311 309 307 308 307 306 305 303 303 302 302 303 303 302 304 305 305 306 306 308 311 309 306 304 304 307 307 307 306 307 307 306 306 305
315 315 315 315 313 311 310 310 311 311 312 310 308 306 308 304 303 303 303 304 303 303 303 303 302 306 306 307 310 311 311 313 312 308 306 305 307 308 308 308 308 308 307 307 306
315 317 316 316 313 312 311 311 312 311 310 308 306 307 306 304 303 302 302 304 304 304 305 304 305 307 307 309 317 313 312 311 309 308 305 306 306 306 308 308 308 309 309 308 306
315 315 316 315 312 311 310 311 310 310 307 309 309 308 304 303 302 302 304 304 303 304 307 306 307 309 311 310 309 307 307 307 308 307 305 306 306 306 306 307 307 308 308 308 303
311 312 312 313 312 311 309 311 311 311 312 310 308 307 304 303 303 302 304 304 304 306 306 306 307 307 306 306 306 306 306 307 308 306 305 304 305 305 305 305 303 303 302 302 301
307 308 307 309 308 309 309 309 310 311 312 310 307 307 304 305 306 303 302 302 304 306 306 308 307 304 305 306 306 307 307 307 306 304 304 304 305 308 305 302 302 300 300 300 299
306 306 307 303 304 305 305 308 310 311 312 312 304 302 302 302 303 302 301 303 303 306 306 306 304 305 305 306 306 308 304 304 304 303 307 304 305 309 306 302 302 302 300 299 297
305 304 302 304 307 307 307 308 309 309 315 308 301 300 300 301 300 300 300 300 305 305 305 307 304 305 306 306 304 307 303 303 303 304 303 307 302 308 304 302 301 299 299 298 297
305 304 300 304 302 307 307 308 309 310 313 304 300 300 300 301 302 300 301 301 302 304 303 304 302 303 305 302 302 302 303 304 304 306 306 305 305 308 303 302 301 300 299 298 297
297 298 299 303 305 304 306 308 310 313 306 303 302 301 303 303 303 303 303 303 306 307 308 306 305 302 302 303 303 303 306 306 310 304 304 303 303 304 303 300 299 297 297 297 297
296 298 300 304 306 305 306 308 312 311 310 304 303 304 307 305 306 305 306 307 306 306 311 311 308 303 303 304 306 306 304 304 310 308 307 302 301 304 298 299 298 299 298 298 297
298 299 301 303 305 307 307 308 310 309 307 306 306 308 308 306 306 306 308 309 307 306 310 308 307 301 301 302 302 304 305 302 305 297 300 303 306 302 300 300 300 298 297 297 296
299 301 302 303 305 305 306 308 306 305 306 307 310 309 310 307 307 307 308 306 304 305 304 305 307 303 300 300 300 302 301 302 300 302 306 307 306 305 299 297 298 296 297 297 296
298 301 303 303 305 304 306 307 303 304 305 306 308 307 309 307 307 307 308 304 303 303 304 302 302 303 300 299 302 301 302 301 301 301 304 306 306 299 297 294 292 295 298 297 295
299 302 301 303 304 303 306 303 302 303 303 304 305 306 307 306 307 307 307 304 303 302 303 302 304 306 302 298 298 300 304 302 301 304 300 300 302 293 292 291 297 298 296 294 293
300 301 300 302 303 305 301 303 302 302 303 304 305 305 302 304 304 304 304 302 302 302 303 301 303 301 302 300 298 299 301 301 298 300 300 304 305 293 293 296 297 296 295 294 294
300 302 300 301 302 303 303 303 303 302 302 303 304 302 301 301 301 303 303 301 300 300 300 300 302 300 303 304 299 300 300 300 299 301 296 302 301 295 294 295 294 296 296 295 295
299 299 299 300 301 302 303 302 303 302 301 303 302 302 302 301 302 302 302 300 300 300 301 299 298 297 292 293 294 294 293 298 300 296 301 296 294 294 292 292 295 296 296 295 296
298 299 295 299 299 301 303 302 302 301 301 302 303 301 300 298 300 301 302 300 299 300 300 299 299 293 292 292 289 291 293 294 297 297 297 297 298 293 296 296 296 296 295 295 294
296 298 298 300 299 302 301 301 302 301 301 301 301 301 301 301 300 300 300 300 299 297 299 296 298 299 296 292 292 292 290 292 291 290 295 299 296 291 290 292 294 295 295 294 293
Wind_Speed
9 8 7 7 7 6 5 6 5 6 7 7 7 7 7 6 6 4 2 7 6 4 2 2 3 1 5 3 6 2 3 5 8 7 1 5 3 3 4 8 5 4 2 4 11
10 10 8 9 8 7 7 6 6 7 7 8 8 8 7 7 6 5 9 7 4 2 0 2 0 2 3 3 4 4 3 4 3 6 7 10 1 9 2 9 9 11 10 7 13
12 11 10 10 10 9 9 8 7 7 7 7 7 7 6 5 4 7 7 4 3 2 1 2 4 3 6 7 7 5 5 1 5 9 9 8 11 10 5 8 14 6 22 20 18
13 12 12 11 11 10 10 9 9 8 7 7 7 6 5 3 3 3 5 4 4 3 1 1 2 3 4 6 12 4 11 14 10 7 3 6 11 9 10 23 13 12 4 21 21
15 13 14 13 12 11 10 10 9 9 8 7 6 5 4 4 6 8 7 6 4 2 1 2 5 5 5 3 2 9 9 10 12 12 13 15 15 11 19 25 20 17 16 12 16
16 15 16 15 14 11 11 10 10 9 8 7 6 5 3 8 8 9 7 5 4 2 2 2 2 3 6 4 3 7 10 16 15 16 12 11 10 11 16 13 13 17 20 20 17
17 17 16 16 14 12 12 12 11 10 9 7 6 5 6 9 9 7 6 5 4 5 2 6 5 4 3 6 4 6 6 9 14 14 3 4 7 10 21 20 17 12 13 15 21
19 17 17 17 14 12 12 12 11 11 9 8 6 5 5 10 12 9 5 3 3 4 6 3 3 3 4 4 5 4 5 4 3 6 3 3 6 6 4 1 5 8 12 16 18
23 22 20 18 15 12 11 10 10 10 9 7 4 4 3 6 8 8 8 3 3 1 3 2 3 3 3 3 4 7 4 5 1 5 5 6 6 7 7 9 13 17 19 14 13
28 31 24 20 17 13 10 9 8 9 8 6 7 4 8 5 9 9 8 7 2 2 1 3 4 2 3 4 3 3 3 4 7 2 6 8 15 13 26 24 23 22 21 18 16
29 23 25 25 18 14 10 6 4 4 10 8 4 2 7 9 8 7 7 4 4 4 4 5 4 6 6 6 4 4 4 8 9 6 5 7 13 14 21 22 20 19 18 14 13
24 23 20 22 20 15 11 6 5 3 5 14 13 9 8 10 4 7 6 7 6 5 6 2 6 4 4 4 2 5 7 7 8 3 4 8 19 22 18 10 9 14 15 12 5
7 9 12 16 17 16 14 10 7 4 4 6 10 7 6 12 5 12 10 5 5 6 7 5 3 3 1 4 5 5 5 4 5 9 9 7 9 4 5 13 14 13 11 10 9
12 15 10 9 9 9 11 11 7 3 1 7 6 6 8 8 4 8 13 6 3 5 5 5 4 2 3 4 2 1 5 4 5 5 3 6 5 6 7 7 8 10 13 9 7
14 12 11 6 3 5 5 9 7 7 3 6 5 8 9 6 10 3 8 4 4 6 4 2 4 3 1 1 3 1 4 4 3 3 6 3 1 6 8 7 7 8 7 5 4
23 20 11 8 10 7 9 9 14 3 7 4 5 6 5 4 4 5 3 3 2 1 1 3 2 2 1 4 1 4 4 5 3 2 3 3 3 2 3 2 5 7 9 7 9
26 16 13 9 9 13 9 14 3 4 2 5 5 7 7 5 5 5 5 5 4 5 5 3 3 3 1 2 3 2 3 1 2 1 4 1 0 5 3 4 3 5 12 11 9
8 10 14 14 12 14 20 3 7 3 3 2 4 7 5 5 3 5 5 5 3 1 1 5 3 4 2 3 1 1 0 2 4 3 2 4 5 4 3 1 3 8 10 9 10
8 6 14 14 15 18 10 4 4 2 3 7 6 3 4 3 2 5 7 4 4 7 5 4 3 5 4 3 2 3 2 3 1 2 1 4 1 3 5 2 2 8 8 11 13
3 7 11 14 16 17 4 8 3 2 2 2 3 2 7 6 5 5 8 2 5 2 2 2 4 2 4 1 2 3 1 2 0 2 4 4 3 5 4 5 8 8 14 17 18
6 6 9 14 16 11 7 3 3 7 2 3 2 3 1 5 5 3 5 3 4 4 3 4 1 4 3 6 5 3 2 2 1 2 2 3 4 3 9 4 6 9 15 19 20
6 2 6 17 8 3 2 2 1 4 2 2 3 4 1 2 2 5 6 5 4 7 4 3 1 3 2 2 3 3 1 5 3 3 2 1 5 2 4 3 5 12 18 22 19
5 4 4 19 5 5 2 2 2 3 3 3 5 4 3 3 3 1 4 4 5 1 2 3 3 2 2 3 2 3 4 5 3 0 5 2 4 1 4 6 12 14 19 22 21
4 3 4 13 4 5 4 3 4 3 1 5 2 6 3 3 2 4 4 3 4 3 4 0 2 3 2 4 3 4 8 11 6 3 3 8 6 3 4 6 15 20 17 19 21
5 2 4 3 5 2 6 5 8 6 5 7 4 3 4 3 4 4 4 4 4 7 4 0 3 1 3 4 4 5 6 11 16 11 5 3 4 5 5 5 10 17 16 17 21
4 3 2 2 4 10 9 7 8 4 7 4 3 8 4 4 3 5 6 6 5 6 5 3 2 1 3 1 3 4 10 10 11 12 11 13 19 3 7 10 14 15 14 14 21
14 6 2 5 2 6 11 6 9 11 10 8 9 4 6 4 10 10 11 8 7 8 5 4 2 2 3 1 3 6 8 11 5 3 9 12 8 1 4 8 15 20 17 11 25
Wind_Direction
275 278 280 284 287 294 294 301 304 303 300 299 301 303 303 302 297 277 224 236 260 285 320 61 68 121 142 194 219 280 284 266 267 297 58 109 1 127 265 277 262 235 292 136 190
273 273 276 280 285 288 291 292 296 302 301 298 298 300 303 303 295 254 259 258 243 239 138 90 165 214 196 188 196 222 232 248 10 353 348 354 145 299 290 265 255 239 236 210 207
270 271 274 277 279 281 285 287 290 291 295 294 293 292 292 298 310 220 248 216 212 264 263 181 172 202 246 206 199 206 230 266 336 13 353 319 303 264 252 266 257 261 225 229 223
266 268 269 271 275 279 281 283 287 291 291 291 288 285 275 250 258 255 211 228 277 278 197 125 160 206 232 205 226 255 251 263 304 329 313 286 302 305 263 245 291 291 355 222 216
265 266 267 269 270 271 275 279 280 283 286 287 285 274 256 246 238 254 240 260 253 239 180 214 240 243 265 283 319 235 265 294 299 282 269 273 270 265 268 262 266 272 260 204 229
262 263 270 271 271 273 272 278 281 281 280 276 271 252 224 256 257 248 239 237 231 189 262 189 272 259 296 282 242 6 308 290 286 269 278 268 272 293 258 271 266 256 257 242 226
259 266 269 276 280 269 271 275 279 280 281 274 261 244 233 248 254 236 234 238 224 199 187 233 216 179 315 256 308 279 295 276 248 237 214 12 268 223 265 265 264 242 259 257 246
261 260 271 281 282 276 272 276 276 273 273 269 257 227 254 235 233 227 231 236 184 169 181 203 205 217 214 325 253 244 226 284 58 119 106 118 282 359 62 287 293 271 260 249 241
256 257 260 271 278 272 275 278 273 269 266 259 242 220 233 216 204 215 185 192 188 215 241 229 196 249 180 226 267 204 257 272 3 183 137 190 278 305 308 278 274 277 270 265 229
247 250 248 257 266 262 272 281 278 272 259 249 211 231 223 201 197 188 179 178 160 228 272 184 212 234 219 206 213 350 287 332 311 143 203 225 254 272 276 276 271 272 270 259 212
234 221 241 256 252 248 256 260 265 251 213 211 232 143 144 188 172 174 190 177 163 200 219 186 225 215 236 207 319 347 295 272 289 334 345 290 291 282 280 282 282 276 275 263 126
219 220 231 245 245 241 241 216 257 222 280 236 226 206 173 172 162 200 193 175 190 218 183 144 227 67 76 59 341 288 279 278 281 84 339 278 285 282 280 288 52 41 50 62 83
311 278 260 241 244 238 233 217 251 290 261 206 211 206 203 201 215 172 182 193 216 223 190 237 86 109 30 284 241 254 259 322 318 334 264 313 281 304 90 81 77 62 65 62 56
297 303 294 293 254 236 219 226 216 185 275 203 199 192 181 152 181 188 174 173 205 223 197 252 110 207 207 247 76 283 28 8 326 2 281 53 288 326 89 90 86 85 73 66 62
293 304 306 231 230 187 197 187 174 152 235 95 138 155 160 176 135 173 169 165 207 185 146 128 166 170 109 51 57 178 355 292 297 311 332 297 89 269 118 78 72 66 76 51 8
288 302 279 248 212 216 200 178 155 129 238 135 130 163 156 170 137 126 144 146 91 129 191 58 64 13 220 100 64 343 306 254 219 295 264 232 163 298 352 302 59 77 66 3 320
293 273 248 217 213 200 196 156 154 204 346 171 178 163 189 158 151 186 170 178 174 137 186 136 161 105 308 171 152 85 256 272 269 304 237 194 185 279 60 13 19 331 325 336 344
279 265 229 215 196 198 190 182 218 188 169 151 138 166 173 133 155 182 167 194 214 66 145 170 244 162 43 28 97 142 274 139 268 321 330 162 241 243 183 275 343 353 334 337 320
297 235 234 209 205 196 203 236 189 230 142 149 128 142 167 160 164 178 202 192 129 196 183 121 146 92 59 43 324 167 140 21 274 102 51 227 178 58 131 4 323 356 344 340 333
306 234 242 204 195 192 214 219 173 73 92 47 179 196 175 170 169 204 175 17 130 221 225 99 121 157 112 346 14 25 34 90 307 270 263 238 228 205 192 341 347 334 324 329 332
232 217 215 192 192 187 216 244 166 115 85 149 182 126 246 160 177 221 161 350 106 147 246 133 100 126 145 211 162 121 168 241 11 187 229 302 255 286 144 206 257 288 330 333 324
234 226 240 187 189 197 216 155 146 111 133 180 231 96 166 114 164 171 194 70 131 153 161 42 144 186 117 65 24 23 334 195 174 198 241 234 272 324 159 231 275 332 348 352 349
235 192 213 191 205 203 144 121 125 139 171 199 207 126 60 149 173 200 114 107 149 170 129 174 205 164 175 138 114 217 180 245 72 59 212 218 265 261 288 328 356 349 352 360 4
259 196 162 210 244 225 150 180 162 178 235 198 179 106 121 145 52 165 130 135 133 112 107 18 276 228 164 85 102 190 206 208 203 209 232 223 270 240 306 339 337 344 348 359 9
231 209 181 202 212 232 172 181 177 162 219 213 192 183 174 143 143 185 130 113 171 152 150 161 229 85 278 226 204 209 218 200 212 224 236 265 261 277 304 288 306 326 338 352 2
241 182 190 296 248 194 202 196 193 157 175 193 203 190 192 150 168 174 136 169 183 167 170 169 112 84 287 8 137 250 234 219 226 236 252 264 275 254 301 324 316 318 326 344 355
227 238 206 184 188 202 213 191 214 149 205 182 192 140 184 160 122 68 89 62 125 151 158 150 151 168 270 232 315 298 223 195 186 199 208 243 249 297 319 316 307 309 305 324 345